星链-35263(STARLINK-35263)

导读 | 豆包AI

STARLINK-35263是美国太空探索技术公司SpaceX星链(Starlink)星座的卫星,由美国在2025年9月13日发射升空,属于星链星座低轨卫星组网扩容的组成部分,旨在为全球提供高速低延迟的卫星互联网服务,弥补地面网络覆盖盲区,提升全球网络接入的普惠性。

Basic Information
目录编号:
65597
目录名称:
STARLINK-35263
国际标识:
2025-207F
轨道中心:
EARTH
卫星名称:
星链-35263
卫星全名:
星链-35263(STARLINK-35263)
卫星状态:
在轨 (已飞行228 天)
发射日期:
2025-09-13 UTC
国别 :
美国 (US)
星等 :
--
Orbit Information
数据来源 国际轨道数据 AOE轨道数据
星历时间 2026-04-29T13:08:45+0800
3小时前
查看轨道信息
2026-04-22T22:00:00+0800
6天前
查看轨道信息
半长轴 6927.65km 6927.666km
偏心率 0.0001015 0.0001372
轨道倾角 97.557° 97.591°
近地点辐角 163.271° 135.443°
升交点赤经 188.432° 181.929°
平近点角 196.855° 304.564°
近地点 548.809km 548.578km
远地点 550.217km 550.48km
周期 95.640分钟 95.640分钟
每日圈数 15.056494 15.056443
Detailed Information
固有亮度:
5
最大亮度:
2.5
卫星平台:
Starlink V1.0
覆盖范围:
全球
运营商:
太空探索技术公司
运营商所在国:
美国
制造商(研发单位):
太空探索技术公司
制造商所在国:
美国
使用方式:
暂无
Satellite Introduction
Starlink 计划是 SpaceX 推出的全球卫星互联网项目,通过发射低轨道卫星,为全球尤其是偏远地区提供高速、低延迟的互联网服务。自 2019 年起,Starlink 已部署数千颗卫星,旨在缩小全球数字鸿沟,推动互联网普及。该项目还为军事、航空等行业提供通信支持,带来广泛经济效益。
2D Orbit Map
3D Orbit Map
Orbit Altitude Analysis Chart
Orbit Inclination Analysis Chart
Orbit Comprehensive Analysis Chart
View Comprehensive Chart